Wind_Speed
113 118 128 139 146 155 152 145 146 126 112 100 88 78 64 53 46 42 34 22 16 20 18 29 45 55 66 81 96 116 139 158 163 160 151 140 135 125 117 113 105 107 96 88
110 114 122 133 145 152 150 148 145 127 113 105 94 84 75 61 54 49 41 31 20 15 14 24 39 50 63 79 94 114 135 158 163 159 150 139 131 121 116 110 104 101 99 86
110 116 122 130 141 150 152 145 145 124 113 106 98 86 72 66 56 41 34 26 22 12 11 20 34 45 59 75 95 114 136 159 162 156 148 136 129 125 124 111 100 92 91 87
108 116 123 130 138 145 151 147 145 130 114 104 96 91 81 68 48 43 38 28 19 11 6 16 28 41 54 72 92 110 132 157 165 156 145 138 134 132 123 111 97 92 92 91
107 115 121 128 136 142 148 150 149 133 116 104 96 93 85 72 61 50 42 26 18 10 1 9 22 36 51 69 92 110 138 158 161 152 145 135 130 125 120 108 103 98 87 89
106 113 122 128 135 142 143 149 156 143 117 104 91 85 79 66 56 49 41 29 19 12 8 8 20 33 51 69 91 114 137 156 159 151 139 125 121 118 109 106 96 97 88 88
106 111 117 129 133 140 142 145 154 145 119 107 95 83 77 66 56 49 40 28 17 13 10 15 20 34 52 75 92 118 140 159 154 144 127 115 117 109 101 98 91 94 93 83
105 112 117 126 131 139 141 147 153 144 122 107 93 85 77 69 55 49 43 32 19 13 14 17 25 39 59 75 99 123 142 154 146 134 122 114 108 108 104 97 96 96 92 85
106 114 120 124 131 136 144 149 148 139 128 108 93 81 75 68 55 46 42 28 17 16 18 21 30 42 60 86 101 123 138 140 135 126 114 108 105 105 101 96 99 91 94 90
103 112 120 122 129 135 139 140 147 140 136 111 94 81 74 66 55 43 40 27 16 21 24 27 34 46 64 83 100 123 134 136 131 120 115 112 105 104 103 93 89 86 93 87
104 112 118 121 128 133 139 137 146 142 131 117 96 79 72 64 57 41 35 25 14 23 32 39 49 62 83 102 114 122 137 132 127 119 117 115 106 107 106 97 90 88 84 84
105 110 116 120 128 136 140 141 136 144 136 113 93 78 67 62 53 39 28 17 11 27 40 54 71 81 99 111 122 134 131 126 125 124 117 116 113 107 103 96 99 94 89 86
105 108 116 121 127 135 135 137 142 131 142 114 90 77 62 56 49 38 21 14 13 31 47 63 78 92 109 123 126 126 130 125 125 126 121 116 111 105 100 96 99 99 96 94
105 108 116 123 126 131 132 142 138 138 136 113 90 76 60 51 43 34 22 7 13 33 57 69 80 94 112 125 136 139 131 130 127 129 120 122 106 101 100 103 99 96 95 89
108 109 117 124 128 132 135 136 137 136 129 131 95 76 58 48 41 31 24 10 9 36 59 67 84 98 121 132 138 133 130 129 129 129 123 119 109 103 100 95 90 94 96 95
110 112 119 125 131 134 138 139 134 151 133 125 95 78 56 49 38 28 22 16 9 35 56 78 88 95 113 129 137 138 134 129 134 131 129 122 115 107 109 94 96 95 94 93
110 116 121 129 131 135 140 138 129 144 124 125 92 74 61 48 40 29 19 17 14 34 44 72 89 97 110 125 133 134 136 133 133 132 131 129 118 107 101 104 101 96 97 91
114 118 123 132 134 137 137 144 145 140 118 128 93 72 61 51 41 32 20 17 17 28 49 54 72 95 109 121 133 136 136 135 132 133 135 135 128 125 113 107 102 96 92 95
122 123 128 135 136 139 144 146 148 132 138 114 93 75 58 54 43 37 23 14 22 22 45 57 61 80 95 117 128 136 138 136 137 138 134 135 131 128 123 115 103 104 105 110
125 128 132 135 138 144 146 142 147 144 131 108 87 77 58 52 46 40 34 17 17 27 30 46 62 70 82 99 118 133 140 142 144 141 138 135 131 134 128 123 113 107 107 95
130 134 136 139 143 142 148 139 150 140 130 104 90 79 60 48 45 44 39 29 18 24 33 38 46 69 70 82 99 115 131 141 143 142 139 139 136 133 138 136 133 116 119 117
131 135 139 144 142 140 145 145 137 144 122 101 90 77 62 50 44 44 42 34 30 25 32 40 44 51 67 79 89 88 112 124 138 138 139 140 143 146 137 136 131 135 120 116
134 136 144 143 143 148 145 144 142 131 108 97 89 76 62 53 46 45 40 36 33 32 33 41 48 51 60 78 80 87 101 112 118 136 141 142 142 140 141 137 135 133 131 127
137 138 144 142 143 144 144 145 126 110 102 96 87 73 62 55 51 47 41 36 33 34 35 41 48 53 55 67 80 83 88 100 113 120 134 140 142 141 140 138 135 135 138 135
145 145 140 139 139 144 142 135 114 109 101 92 83 71 64 58 55 49 42 39 34 32 36 40 48 55 59 63 72 77 82 97 104 110 117 127 136 138 142 139 139 142 145 145
143 144 138 141 138 145 144 118 108 104 98 91 81 73 66 61 57 51 44 39 35 31 35 40 47 55 60 64 70 77 82 87 101 109 108 114 120 128 136 141 143 146 144 142
147 136 137 137 138 139 117 106 104 100 95 88 82 76 68 63 58 51 47 39 35 32 34 40 46 53 59 65 69 74 86 92 91 98 104 112 116 117 122 129 134 140 143 145
Wind_Direction
355 355 358 1 1 3 5 7 4 3 0 1 2 3 359 359 355 348 346 338 307 285 242 211 208 208 200 198 193 193 191 188 187 185 185 184 185 187 192 195 198 201 201 202
355 355 357 1 2 1 7 7 4 4 1 359 1 4 0 1 4 356 344 334 323 296 255 212 206 205 199 196 192 192 190 187 184 183 181 183 184 187 189 192 188 195 197 197
356 358 359 2 2 3 6 5 5 5 3 1 0 0 1 3 4 359 354 349 339 320 264 212 207 203 197 195 190 189 188 187 183 180 179 181 185 184 188 191 192 194 196 196
354 358 1 1 2 4 3 6 5 5 4 2 1 360 3 360 5 10 7 358 359 345 258 213 206 199 193 191 189 188 188 185 183 178 179 182 182 186 188 189 192 196 195 198
353 356 359 360 1 4 4 5 5 5 4 3 5 2 360 0 3 8 7 10 14 22 350 200 198 193 190 186 185 187 187 184 181 178 179 185 187 189 190 195 196 201 204 203
353 354 359 360 358 1 4 3 5 4 4 2 6 6 0 0 3 8 6 6 22 48 101 166 187 186 182 183 179 186 186 183 181 179 182 187 188 191 193 196 201 203 201 205
351 352 356 359 355 357 2 4 1 1 2 3 3 5 4 3 4 9 13 9 25 58 105 140 171 175 175 177 180 181 183 180 180 180 183 185 186 190 194 192 194 199 204 207
350 350 355 355 355 358 2 360 1 1 2 2 3 7 4 6 3 9 10 5 26 66 109 140 160 169 172 175 178 181 183 180 179 181 181 182 185 185 191 192 197 198 204 206
346 347 352 354 355 356 360 358 0 3 3 1 3 8 5 7 4 7 13 6 43 83 113 138 151 166 173 175 180 181 181 178 181 181 179 182 184 189 189 196 202 204 205 204
346 348 349 351 351 354 355 358 358 2 1 360 1 6 6 7 5 8 14 12 59 96 113 132 147 162 170 173 178 176 179 178 178 178 179 182 184 189 192 196 200 198 203 204
342 345 347 348 350 350 351 354 357 357 358 359 358 4 9 7 4 9 16 12 85 109 120 131 144 155 163 168 169 175 178 178 177 178 182 184 188 189 193 198 199 203 209 212
341 345 343 346 347 349 348 353 356 356 354 358 356 0 9 6 6 5 19 7 115 124 137 146 150 158 163 168 172 178 178 178 181 182 185 186 190 193 198 201 204 210 213 214
337 342 341 344 342 347 350 352 353 357 355 356 356 356 6 11 5 358 13 6 173 142 145 155 160 166 166 168 173 175 182 183 181 186 188 189 193 197 204 207 208 212 212 213
335 337 339 342 341 346 347 346 351 351 353 355 355 354 357 9 7 360 348 12 211 163 160 164 165 167 170 176 176 182 185 185 184 186 190 191 194 200 203 205 206 209 212 217
336 334 335 339 338 340 344 343 348 348 351 351 351 353 353 4 9 358 344 322 208 186 169 169 174 175 179 182 180 186 187 188 187 189 192 194 195 201 200 204 209 212 213 216
333 334 334 336 337 338 342 340 346 347 349 350 348 349 352 355 5 1 340 316 219 209 186 177 178 181 184 185 186 187 189 191 192 197 199 199 199 201 204 204 209 213 218 216
328 329 329 332 334 334 337 340 343 346 346 348 347 346 347 348 352 359 340 309 262 207 214 191 185 186 189 190 191 191 191 193 194 198 200 199 203 201 203 208 212 215 219 224
324 327 327 329 333 333 335 337 341 343 343 342 342 345 341 342 344 349 343 304 278 227 217 214 204 194 192 194 195 195 195 195 197 198 202 203 205 208 206 207 213 218 223 227
323 324 325 328 329 331 331 334 338 339 340 341 339 343 339 339 338 337 340 311 278 260 225 223 220 211 204 198 199 199 198 198 198 200 201 206 207 208 210 209 217 222 227 231
321 323 323 326 327 328 329 332 335 337 336 337 337 340 337 336 333 330 327 315 273 262 250 231 223 218 217 211 205 204 203 201 202 203 202 205 209 208 210 211 215 221 226 232
317 320 321 322 324 326 328 331 332 335 333 333 334 337 333 333 331 324 319 310 278 252 250 242 229 224 224 221 217 211 210 207 206 206 206 207 211 212 213 215 216 223 226 231
317 317 320 322 322 327 326 328 331 329 329 330 333 334 329 328 327 321 312 304 287 260 244 243 237 227 223 223 222 221 217 214 212 211 211 211 212 214 216 220 220 225 227 232
312 316 317 320 321 322 325 327 326 326 326 328 331 331 327 326 325 323 313 299 286 267 245 235 235 232 224 223 226 224 224 218 217 216 215 215 214 217 218 219 222 225 228 229
311 316 314 319 319 320 324 326 324 323 325 329 328 327 326 326 324 324 315 301 287 268 250 236 231 230 228 221 221 224 225 225 222 221 219 218 219 219 219 222 222 225 227 230
310 313 316 316 319 322 322 323 320 321 325 326 325 325 325 325 325 323 316 304 289 268 252 238 230 228 225 225 220 214 218 221 224 223 223 224 223 223 224 223 226 226 228 230
308 311 312 313 317 319 319 319 318 320 323 323 323 324 323 324 325 321 316 306 290 269 253 240 230 226 225 222 223 221 216 216 219 222 222 223 223 225 226 227 228 230 231 235
307 309 312 313 317 316 317 315 317 319 321 322 322 320 321 323 324 319 315 306 290 272 253 242 232 226 224 224 222 221 222 222 220 221 223 222 224 225 226 228 231 231 233 235
Height
10496 10476 10457 10435 10404 10379 10358 10331 10303 10280 10252 10232 10213 10195 10176 10161 10148 10135 10120 10113 10109 10106 10104 10107 10112 10123 10134 10150 10173 10200 10234 10270 10308 10340 10370 10401 10432 10462 10490 10513 10530 10549 10569 10583
10503 10484 10464 10442 10412 10382 10359 10336 10305 10282 10253 10226 10205 10188 10172 10158 10142 10130 10120 10111 10105 10100 10100 10102 10107 10118 10131 10146 10168 10197 10229 10263 10298 10329 10366 10401 10428 10457 10484 10504 10523 10541 10555 10572
10497 10478 10459 10444 10416 10388 10361 10334 10314 10288 10261 10237 10209 10193 10175 10156 10144 10135 10122 10112 10104 10100 10099 10099 10106 10115 10129 10145 10167 10193 10226 10261 10298 10329 10366 10397 10423 10451 10474 10499 10518 10533 10551 10564
10497 10477 10460 10437 10422 10398 10368 10349 10316 10291 10264 10243 10221 10188 10171 10161 10147 10131 10122 10110 10104 10102 10101 10101 10107 10116 10130 10147 10168 10194 10226 10263 10298 10330 10364 10391 10418 10446 10470 10492 10513 10529 10546 10559
10490 10475 10460 10439 10422 10403 10374 10350 10326 10302 10276 10249 10229 10200 10176 10160 10143 10133 10125 10117 10107 10103 10105 10106 10110 10119 10132 10149 10172 10201 10237 10273 10306 10334 10368 10394 10420 10451 10471 10491 10510 10527 10542 10553
10485 10471 10452 10436 10415 10400 10380 10354 10326 10300 10281 10261 10246 10224 10200 10180 10163 10148 10131 10125 10115 10108 10107 10112 10117 10125 10137 10156 10179 10209 10246 10283 10315 10345 10372 10401 10426 10451 10473 10491 10505 10522 10535 10551
10483 10471 10456 10437 10418 10396 10380 10358 10333 10311 10286 10266 10248 10224 10204 10190 10171 10154 10140 10133 10127 10118 10117 10118 10127 10136 10149 10167 10190 10217 10254 10290 10326 10356 10382 10404 10430 10451 10470 10488 10504 10518 10535 10546
10483 10469 10453 10434 10417 10398 10381 10359 10339 10314 10296 10274 10256 10235 10211 10199 10183 10169 10157 10146 10141 10133 10130 10132 10138 10149 10162 10182 10198 10223 10265 10307 10339 10360 10379 10401 10427 10448 10466 10485 10500 10513 10525 10538
10473 10459 10443 10430 10417 10399 10381 10364 10349 10325 10304 10285 10268 10250 10227 10212 10197 10184 10173 10164 10156 10149 10146 10150 10155 10167 10181 10201 10231 10261 10288 10327 10343 10360 10384 10407 10431 10452 10471 10484 10493 10507 10518 10531
10473 10460 10442 10429 10415 10401 10387 10370 10349 10336 10316 10296 10279 10261 10241 10225 10211 10199 10189 10184 10176 10168 10166 10170 10178 10191 10207 10226 10252 10280 10307 10320 10337 10365 10388 10411 10431 10451 10467 10477 10490 10500 10512 10522
10469 10454 10443 10429 10417 10403 10387 10374 10352 10334 10320 10302 10284 10273 10257 10239 10225 10216 10207 10204 10197 10190 10189 10194 10203 10218 10237 10256 10278 10298 10311 10328 10349 10369 10396 10413 10430 10445 10459 10471 10484 10496 10507 10517
10464 10453 10440 10426 10415 10401 10387 10374 10360 10342 10319 10301 10292 10279 10269 10253 10242 10233 10224 10221 10217 10213 10214 10217 10222 10235 10253 10277 10292 10304 10328 10336 10358 10373 10391 10406 10423 10439 10450 10467 10479 10490 10500 10511
10457 10448 10436 10423 10409 10398 10387 10372 10358 10346 10326 10308 10298 10285 10277 10267 10255 10244 10239 10234 10235 10233 10241 10239 10247 10254 10270 10281 10297 10319 10320 10339 10356 10374 10396 10409 10422 10434 10448 10461 10470 10481 10489 10498
10449 10440 10429 10420 10406 10395 10383 10374 10361 10344 10332 10316 10303 10291 10279 10273 10264 10257 10248 10246 10249 10249 10248 10254 10266 10277 10285 10286 10295 10294 10324 10337 10352 10375 10388 10401 10419 10428 10443 10453 10462 10470 10483 10491
10443 10432 10422 10414 10400 10389 10381 10368 10355 10337 10325 10317 10302 10291 10282 10276 10269 10260 10255 10253 10254 10257 10255 10266 10271 10280 10278 10282 10299 10312 10328 10348 10356 10367 10378 10398 10411 10421 10436 10443 10451 10460 10469 10475
10434 10423 10415 10404 10395 10383 10374 10362 10351 10337 10323 10311 10300 10289 10282 10276 10272 10265 10257 10256 10258 10265 10263 10263 10270 10279 10286 10297 10294 10308 10323 10342 10356 10370 10380 10396 10402 10412 10426 10437 10446 10453 10460 10468
10423 10415 10404 10395 10384 10375 10363 10353 10345 10333 10320 10312 10301 10287 10276 10274 10269 10266 10259 10255 10256 10263 10267 10266 10266 10273 10282 10290 10300 10312 10320 10333 10347 10361 10374 10387 10395 10405 10417 10421 10428 10438 10449 10458
10412 10406 10392 10382 10374 10363 10351 10344 10334 10323 10311 10305 10296 10286 10272 10265 10264 10262 10257 10251 10253 10255 10262 10267 10269 10268 10273 10282 10291 10301 10313 10329 10340 10352 10359 10370 10378 10392 10401 10411 10419 10429 10439 10443
10397 10389 10379 10371 10357 10348 10338 10331 10325 10310 10302 10293 10286 10278 10268 10257 10251 10252 10252 10249 10242 10248 10251 10258 10265 10269 10270 10273 10283 10292 10302 10318 10327 10339 10346 10359 10370 10385 10395 10404 10410 10418 10421 10423
10385 10374 10365 10355 10344 10334 10325 10315 10306 10300 10287 10282 10274 10269 10259 10249 10240 10237 10238 10240 10239 10233 10237 10242 10252 10262 10267 10269 10273 10282 10294 10301 10311 10325 10338 10350 10360 10371 10382 10391 10398 10400 10403 10403
10370 10360 10350 10341 10334 10321 10310 10299 10291 10284 10273 10266 10260 10257 10248 10239 10229 10223 10220 10222 10225 10225 10222 10225 10230 10244 10253 10261 10269 10278 10286 10294 10304 10314 10327 10338 10348 10355 10364 10372 10384 10387 10389 10395
10354 10343 10336 10325 10315 10307 10297 10285 10273 10266 10256 10249 10243 10239 10232 10224 10218 10211 10204 10203 10205 10208 10208 10207 10212 10218 10230 10242 10255 10264 10274 10282 10294 10305 10314 10320 10331 10337 10346 10358 10372 10377 10378 10388
10339 10329 10319 10310 10298 10289 10281 10267 10256 10241 10235 10229 10226 10220 10214 10205 10200 10195 10191 10186 10185 10186 10189 10191 10194 10199 10206 10217 10229 10245 10255 10266 10276 10287 10297 10306 10313 10322 10334 10343 10355 10360 10364 10373
10320 10313 10301 10293 10281 10269 10260 10254 10236 10223 10217 10210 10205 10200 10194 10187 10181 10176 10171 10168 10167 10166 10168 10172 10176 10180 10186 10194 10205 10217 10234 10248 10258 10266 10278 10288 10298 10306 10314 10325 10333 10338 10343 10347
10304 10296 10285 10272 10263 10254 10242 10235 10219 10208 10200 10193 10186 10180 10174 10168 10161 10156 10154 10149 10146 10146 10147 10150 10155 10160 10167 10173 10182 10192 10204 10218 10232 10246 10256 10268 10277 10288 10296 10304 10313 10316 10322 10326
10283 10275 10264 10257 10244 10236 10227 10215 10202 10191 10183 10175 10167 10161 10155 10149 10142 10136 10133 10129 10126 10126 10127 10130 10135 10142 10147 10154 10161 10170 10180 10190 10206 10219 10232 10240 10252 10262 10273 10281 10288 10296 10302 10306
10264 10254 10246 10234 10228 10216 10206 10195 10185 10175 10164 10157 10150 10142 10136 10130 10124 10118 10114 10110 10107 10107 10108 10110 10115 10121 10128 10134 10142 10151 10161 10168 10180 10192 10206 10219 10229 10239 10247 10255 10264 10273 10277 10286